Regional Weather Roundup
Issued by NWS

Home | Current Version | Previous Version | Graphics & Text | Print | Product List | Glossary On
Versions: 1 2 3 4 5 6 7 8 9 10 11 12 13 14 15 16 17 18 19 20 21 22 23 24 25 26 27 28 29 30 31 32 33 34 35 36 37 38 39 40 41 42 43 44 45 46 47 48 49 50
000
ASUS43 KLOT 311108
RWRIL

ILLINOIS REGIONAL WEATHER ROUNDUP
NATIONAL WEATHER SERVICE CHICAGO/ROMEOVILLE IL
600 AM CDT TUE MAY 31 2016

NOTE: "FAIR" INDICATES FEW OR NO CLOUDS BELOW 12,000 FEET WITH NO
SIGNIFICANT WEATHER AND/OR OBSTRUCTIONS TO VISIBILITY.

* THESE STATIONS ARE NOT UNDER NWS QUALITY CONTROL. THEY ALSO MAY NOT
  REPORT WEATHER SUCH AS PRECIPITATION OR FOG.

ILZ001-002-007-009-015-016-024-311200-
NORTHWEST ILLINOIS

CITY           SKY/WX    TMP DP  RH WIND       PRES   REMARKS
MOLINE         CLOUDY    66  62  87 E3        29.94S
STERLING*      PTCLDY    65  61  87 E7        29.97S
SAVANNA*       PTCLDY    66  58  76 CALM      29.96S
$$

ILZ003-004-008-010-011-017-018-311200-
NORTH CENTRAL ILLINOIS

CITY           SKY/WX    TMP DP  RH WIND       PRES   REMARKS
ROCKFORD       CLOUDY    65  58  78 SE7       30.00F
FREEPORT*      CLEAR     62  60  93 SE8       29.99R
ROCHELLE*      CLOUDY    65  58  76 E6        29.99S
DE KALB*       CLEAR     64  57  80 E6        30.00S
$$

ILZ005-006-012>014-019>023-311200-
NORTHEAST ILLINOIS

CITY           SKY/WX    TMP DP  RH WIND       PRES   REMARKS
CHICAGO-OHARE  MOCLDY    66  54  65 CALM      29.99R
CHICAGO-MIDWAY CLOUDY    70  56  61 E8        29.98S
AURORA         MOCLDY    65  58  78 E5        29.99R
LANSING*       PTCLDY    65  57  77 CALM      29.99S
JOLIET*        MOCLDY    68  59  73 SE3       29.99R
WAUKEGAN       PTCLDY    59  57  93 CALM      30.01R
DUPAGE AIRPORT PTCLDY    66  54  65 E3        29.98S
KANKAKEE*      CLOUDY    64  59  83 E6        29.99S
WHEELING       PTCLDY    63  55  75 CALM      30.01R
MORRIS*        CLOUDY    67  58  70 NE5       29.97S
ROMEOVILLE*    CLOUDY    67  56  68 E7        29.99S
NORTHERLY ISL    N/A     63  57  81 N1          N/A
NORTHERLY ISL    N/A     63  57  81 N1          N/A
$$

LMZ740>746-311200-
SOUTHERN LAKE MICHIGAN

STATION/POSITION SKY/WX   TEMP    WIND        PRES    VSBY  WAVE
                          AIR SEA DIR/SP/G                  HT/PER
                          (F)     (DEG/KT/KT) (MB)    (MI)  (FT/S)
SOUTHERN BUOY              59 55  110/  4/  4 1015.9R         0
WILMETTE HARBOR            62 56   80/  4/  4   N/A           1
HARRISON CRIB              67     100/ 11/ 12   N/A
BURNHAM HARBOR             64      CALM  /  3   N/A
CALUMET HARBOR             63      40/  3/  4 1015.0R
BURNS HARBOR               64      70/  6/  9 1015.9R
MICHIGAN CITY              66      70/  4/  4   N/A
MICHIGAN CITY 6N           63 61   80/  4/  6   N/A           0
ST. JOSEPH                 66 65  100/  8/ 10   N/A           1
$$

ILZ025>027-034>036-040-047-049-050-058-095>099-311200-
WEST-CENTRAL ILLINOIS

CITY           SKY/WX    TMP DP  RH WIND       PRES   REMARKS
QUINCY         PTCLDY    65  62  90 SW3       29.97S
GALESBURG*     MOCLDY    64  62  93 CALM      29.96S
MACOMB*        MOCLDY    64  62  94 CALM      29.98S
JACKSONVILLE*  CLOUDY    66  62  87 CALM      29.97S
PITTSFIELD*    MOCLDY    66  64  95 SE3       29.99R
$$

ILZ028>032-037-038-041>044-048-051>054-059>061-311200-
CENTRAL ILLINOIS

CITY           SKY/WX    TMP DP  RH WIND       PRES   REMARKS
PONTIAC        MOCLDY    65  63  91 CALM      29.98S
BLOOMINGTON    CLOUDY    68  63  84 NE3       30.00R
DECATUR        CLOUDY    66  60  81 CALM      29.98S
PEORIA         CLOUDY    66  61  84 NE5       29.95F
LACON*         MOCLDY    65  61  88 CALM      29.96S
LINCOLN*       CLOUDY    67  63  86 CALM      29.97S
SPRINGFIELD    CLOUDY    65  61  87 CALM      29.97F
TAYLORVILLE    MOCLDY    65  61  89 CALM      29.98S
$$

ILZ033-039-045-046-055>057-062-063-311200-
EAST-CENTRAL ILLINOIS

CITY           SKY/WX    TMP DP  RH WIND       PRES   REMARKS
CHAMPAIGN      CLOUDY    65  61  87 E5        29.99R
RANTOUL*       CLOUDY    69  61  75 CALM      29.99S
MATTOON        CLOUDY    67  59  75 CALM      29.98R
PARIS*         PTCLDY    63  62  97 CALM      30.00R
$$

ILZ079-100>102-311200-
SOUTHWEST ILLINOIS

CITY           SKY/WX    TMP DP  RH WIND       PRES   REMARKS
ALTON          CLOUDY    65  62  90 CALM      29.98S
CAHOKIA*       CLOUDY    68  65  90 CALM      29.97R
SPARTA*        CLOUDY    69  63  81 CALM      29.98S
$$

ILZ064>066-069>071-074>076-080>082-084>086-088>090-092>094-311200-
SOUTH-CENTRAL ILLINOIS

CITY           SKY/WX    TMP DP  RH WIND       PRES   REMARKS
CARBONDALE     CLOUDY    67  65  93 CALM      29.97R
CAIRO*         MOCLDY    69  67  94 SE5       29.95S
EFFINGHAM*     CLOUDY    66  66 100 CALM      30.00R
MARION         CLOUDY    68  68 100 CALM      29.97S
MT. VERNON     CLOUDY    66  61  82 CALM      29.97F
CENTRALIA*     CLOUDY    69  67  93 CALM      29.97R
SALEM*         CLOUDY    70  65  84 CALM      29.97S
METROPOLIS*    CLOUDY    67  67 100 CALM      29.96F
$$

ILZ067-068-072-073-078-083-087-091-311200-
SOUTHEAST ILLINOIS

CITY           SKY/WX    TMP DP  RH WIND       PRES   REMARKS
LAWRENCEVILLE  PTCLDY    65  62  90 CALM      29.98S
FLORA*         CLEAR     68  65  88 CALM      29.98R
FAIRFIELD*     CLOUDY    65  65  97 CALM      29.96S
HARRISBURG*    CLOUDY    67  67  99 CALM      29.97R
ROBINSON*      CLEAR     61  61 100 CALM      29.99S
CARMI*         PTCLDY    64  64 100 NW3       29.96F
$$

ABBREVIATIONS USED IN REMARKS
   TC - TEMPERATURE IN CELSIUS
  WCI - WIND CHILL INDEX
   HX - HEAT INDEX
  VSB - VISIBILITY
$$





USA.gov is the U.S. government's official web portal to all federal, state and local government web resources and services.